Location: P�rn�nmaa
(61.1833°N, 23.0000°E)
Time: 08:41:58
(UTC+00:00)

Daily predictions for brighter satellites

Satellite Brightness Start Highest point End
(mag) Time Altitude Azimuth Time Altitude Azimuth Time Altitude Azimuth
NOSS 2-3 (D) 4.2 14:01:35 10° WSW 14:06:28 88° SSE 14:12:44 10° ENE
Meteor 1-20 Rocket 4.3 14:01:33 10° NNW 14:07:23 76° ENE 14:13:03 10° SSE
NOSS 3-1 (A) 3.7 14:01:31 10° WSW 14:07:41 85° NNW 14:15:03 10° ENE
Cosmos 158 Rocket 3.9 14:03:28 10° SSW 14:08:32 82° ESE 14:13:31 10° NE
CZ-4B R/B 3.2 14:04:06 10° SE 14:09:23 63° ENE 14:14:48 10° NNW
NOAA 6 4.1 14:05:36 10° SE 14:10:39 60° ENE 14:15:43 10° NNW
FENGYUN 3A 3.7 14:05:29 10° SSE 14:10:53 70° ENE 14:16:18 10° NNW
Cosmos 2278 Rocket 2.3 14:05:37 10° NW 14:11:14 59° NE 14:16:51 10° ESE
Genesis I 3.3 14:09:14 10° WNW 14:13:10 58° NNE 14:17:03 10° E
USA 267 4.4 14:07:02 10° SE 14:13:20 47° SSW 14:19:38 10° W
Cosmos 1900 4.3 14:08:24 10° WNW 14:13:21 69° NNE 14:18:14 10° ESE
SAR-Lupe-1 4.2 14:10:05 10° NNE 14:13:40 59° ESE 14:17:14 10° S
Cosmos 2278 3.9 14:08:53 10° SW 14:14:36 72° NW 14:20:22 10° NE
Cosmos 1869 4.2 14:12:12 10° SW 14:16:01 48° WNW 14:19:52 10° N
COSMOS 2455 3.5 14:10:45 10° SSW 14:16:23 43° ESE 14:22:03 10° NE
Cosmos 1633 Rocket 4.5 14:12:21 10° NNW 14:16:33 42° W 14:20:44 10° SSW
ISS -0.9 14:15:39 10° SW 14:17:49 16° S 14:19:58 10° SSE
SL-16 R/B 2.8 14:13:36 10° NNE 14:19:47 73° WNW 14:25:55 10° SW
PAYLOAD B 4.3 14:14:31 10° SSE 14:20:02 87° ENE 14:25:36 10° NNW
H-2A R/B 4.3 14:15:57 10° SSW 14:20:12 39° W 14:24:26 10° NNW
Cosmos 1346 Rocket 3.0 14:16:27 10° N 14:20:19 50° ENE 14:24:12 10° SE
Cosmos 1666 4.4 14:18:34 10° NNE 14:20:40 14° NE 14:22:45 10° E
Cosmos 1356 Rocket 4.4 14:16:33 10° SW 14:20:44 48° WNW 14:24:56 10° N
Cosmos 1782 4.1 14:19:50 10° SE 14:23:01 23° E 14:26:12 10° NE
Cosmos 1606 3.2 14:20:04 10° SSE 14:23:39 41° E 14:27:17 10° NNE
Cosmos 2360 Rocket 3.1 14:19:41 10° S 14:24:40 33° ESE 14:29:41 10° NE
Cosmos 2369 Rocket 3.0 14:20:09 10° NW 14:25:10 32° N 14:30:12 10° ENE
Helios 1A Rocket 2.9 14:21:49 10° SSE 14:25:54 66° ENE 14:29:58 10° NNW
CZ-4B R/B 2.3 14:25:35 10° NNE 14:28:52 34° E 14:32:06 10° SSE
Cosmos 1315 Rocket 4.2 14:26:15 10° SE 14:29:15 20° E 14:32:17 10° NE
CZ-4C R/B 2.7 14:26:21 10° NNE 14:29:36 77° ESE 14:32:46 10° SSW
Cosmos 1980 Rocket 2.4 14:24:37 10° SW 14:30:21 74° NW 14:36:06 10° NE
Cosmos 921 Rocket 4.2 14:26:59 10° NNW 14:30:21 22° NE 14:33:44 10° E
SMAP 3.5 14:26:58 10° SE 14:31:19 40° ENE 14:35:41 10° N
Cosmos 1328 Rocket 3.5 14:27:46 10° SSW 14:32:07 87° ESE 14:36:29 10° NNE
OPS 8737 4.5 14:29:46 10° SW 14:32:57 57° SSE 14:35:42 11° ENE
Cosmos 304 Rocket 3.8 14:30:37 10° NW 14:35:28 88° ENE 14:40:18 10° SSE
ERS-2 4.0 14:33:06 10° N 14:36:10 25° NW 14:39:12 10° WSW
METEOR-M 4.3 14:32:09 10° SSE 14:37:31 82° WSW 14:42:55 10° NNW
APEX 3.5 14:35:45 10° WSW 14:38:21 35° NNW 14:40:58 11° NE
Cosmos 1400 Rocket 3.2 14:34:38 10° S 14:38:33 45° E 14:42:25 10° NNE
Meteor 1-11 Rocket 4.1 14:33:05 10° NNW 14:38:51 46° ENE 14:44:35 10° SE
Cosmos 2333 Rocket 3.7 14:35:02 10° SE 14:39:02 20° ESE 14:42:44 11° ENE
ALOS 2.4 14:34:38 10° SSE 14:39:19 84° WSW 14:44:03 10° NNW
Radarsat Rocket 4.0 14:33:49 10° SSE 14:39:51 87° ENE 14:45:43 10° NNW
Cosmos 2279 Rocket 4.0 14:35:26 10° NNW 14:41:41 63° ENE 14:47:54 10° SSE
Okean O Rocket 1.6 14:37:32 10° SSE 14:41:54 88° ENE 14:46:17 10° NNW
NOSS 2-3 (C) 4.3 14:38:42 10° WSW 14:43:46 79° NNW 14:50:03 11° ENE
Cosmos 1484 Rocket 3.7 14:40:26 10° S 14:44:22 55° WSW 14:48:21 10° NNW
NOSS 2-2 (E) 4.2 14:41:23 10° SSW 14:45:02 40° SE 14:49:02 12° ENE
Cosmos 292 Rocket 4.2 14:40:42 10° NNW 14:45:22 42° NE 14:50:00 10° ESE
Ariane Rocket 4.4 14:43:24 10° E 14:46:43 18° NE 14:50:02 10° N
Cosmos 2237 Rocket 4.1 14:46:30 10° E 14:47:02 10° E 14:47:33 10° E
Cosmos 1634 Rocket 4.0 14:41:30 10° NNW 14:47:42 90° W 14:53:54 10° SSE
ATLAS 2AS CENTAUR R/B 3.7 14:41:50 10° SSW 14:49:14 43° SE 14:55:56 13° ENE
Cosmos 2322 Rocket 2.3 14:43:46 10° SSW 14:49:21 67° ESE 14:54:39 12° NE
Cosmos 2228 Rocket 3.2 14:45:21 10° S 14:49:52 63° E 14:54:27 10° NNE
NOAA 12 4.4 14:49:27 10° SE 14:54:29 46° ENE 14:59:32 10° NNW
SL-16 R/B 2.2 14:50:20 10° SSW 14:56:01 78° SE 15:01:15 12° NE
Okean-O 3.1 14:52:07 10° SE 14:56:15 39° ENE 15:00:24 10° N
Cosmos 1933 3.3 14:54:32 10° SSW 14:58:35 89° WNW 15:02:38 10° NNE
Cosmos 1844 Rocket 4.3 14:54:05 10° NW 14:59:14 39° WSW 15:04:21 10° S
Cosmos 1515 Rocket 3.6 14:55:17 10° SSW 14:59:37 83° WNW 15:04:01 10° NNE
Cosmos 1697 Rocket 3.4 14:54:13 10° WSW 14:59:38 45° NNW 15:04:31 13° NE
Cosmos 1812 4.3 14:57:50 10° SE 15:00:22 17° E 15:01:12 16° ENE
Cosmos 1151 Rocket 3.5 14:56:23 10° SSW 15:00:44 62° WNW 15:05:05 10° N
Cosmos 1707 Rocket 4.3 14:57:16 10° SSE 15:01:18 34° E 15:05:21 10° NNE
Cosmos 2219 Rocket 3.3 14:57:24 10° SSE 15:01:54 25° ESE 15:05:13 15° ENE
SAR-Lupe-4 4.4 14:59:07 10° N 15:02:38 50° WNW 15:06:08 10° SW
RESURS DK-1 4.2 15:00:53 10° SE 15:03:04 14° ESE 15:04:03 13° E
Meteor 1-26 Rocket 4.3 14:58:05 10° S 15:03:47 66° E 15:09:23 10° NNE
CORIOLIS 4.2 14:58:27 10° SE 15:03:50 62° ENE 15:09:14 10° NNW
SJ-7 4.5 15:01:32 10° SSE 15:05:44 88° WSW 15:09:54 10° NNW
Cosmos 1048 Rocket 4.1 15:00:38 10° SSW 15:05:58 66° ESE 15:10:49 13° NE
Cosmos 1939 Rocket 4.3 15:05:29 17° ENE 15:05:59 17° NE 15:08:36 10° N
AQUARIUS 4.1 15:04:00 10° SSE 15:08:26 63° ENE 15:12:56 10° NNW
Cosmos 1908 Rocket 4.2 15:07:34 10° N 15:11:39 34° ENE 15:15:42 10° SE
Cosmos 1943 Rocket 2.7 15:06:33 10° NW 15:11:54 40° NNE 15:16:18 14° E
Cosmos 1340 3.3 15:08:25 10° NNW 15:12:10 58° W 15:15:53 10° S
Feng Yun 1-1 Rocket 4.1 15:06:56 10° SSE 15:12:20 79° ENE 15:17:47 10° NNW
Cosmos 1500 3.2 15:08:37 10° N 15:12:21 52° ENE 15:16:03 10° SSE
SeaSat 1 3.1 15:08:33 13° E 15:12:23 36° NNE 15:16:52 10° NW
Cosmos 2297 3.8 15:06:58 10° NW 15:12:39 58° NE 15:18:17 10° ESE
COSMO-SKYMED 1 4.5 15:15:57 13° E 15:15:57 13° E 15:17:05 10° ESE
Cosmos 1602 4.3 15:11:02 10° NNW 15:14:53 61° W 15:18:42 10° S
USA 215 4.1 15:12:17 13° E 15:17:29 36° SE 15:23:27 10° SSW
Cosmos 2237 4.4 15:14:17 10° SSW 15:19:55 60° ESE 15:24:18 17° NE
Cosmos 1536 3.1 15:16:37 10° N 15:20:33 46° ENE 15:24:26 10° SE
Cosmos 1689 Rocket 2.0 15:20:01 16° NNE 15:22:19 69° ESE 15:25:21 10° S
NOSS 8 (E) 4.4 15:19:31 10° SW 15:22:33 60° SSE 15:24:18 25° ENE
Lacrosse 4 Rocket 2.4 15:20:37 10° WNW 15:24:19 32° N 15:26:21 21° NE
H-2A R/B 3.4 15:21:32 10° N 15:25:17 34° WNW 15:28:59 10° WSW
Cosmos 1441 Rocket 3.9 15:22:01 10° N 15:25:31 31° ENE 15:28:59 10° ESE
ASTEX 1 4.4 15:20:59 10° N 15:25:44 46° WNW 15:30:27 10° SW
IRS-1C Rocket 4.2 15:21:10 10° SSE 15:26:27 84° WSW 15:31:47 10° NNW
Meteor 1-5 Rocket 4.2 15:21:36 10° NNW 15:27:19 89° ENE 15:32:49 10° SSE
CSL-04 Rocket 4.0 15:22:42 10° ESE 15:27:37 41° NE 15:32:36 10° NNW
YAOGAN 6 3.1 15:24:56 10° SE 15:28:13 36° ENE 15:31:34 10° N
Iridium 82 4.4 15:25:05 10° S 15:28:37 78° E 15:32:16 10° N
SL-08 R/B 4.5 15:25:16 10° NNE 15:29:57 43° WNW 15:34:35 10° SW
Cosmos 2344 4.0 15:22:04 10° W 15:30:12 79° N 15:39:31 15° E
H-2A R/B 2.5 15:26:48 10° SSE 15:30:30 85° ENE 15:34:13 10° NNW
COSMOS 2428 3.4 15:25:57 10° S 15:31:04 36° ESE 15:34:05 21° ENE
PSLV R/B 4.3 15:28:46 16° NNE 15:31:50 46° E 15:35:50 10° S
YAOGAN 1 3.1 15:28:13 10° ESE 15:32:10 35° ENE 15:36:08 10° N
H-2A R/B 3.4 15:35:07 19° NE 15:35:07 19° NE 15:38:31 10° N
NOSS 2-2 (D) 3.6 15:31:42 10° SW 15:35:33 62° SE 15:38:08 25° ENE
Cosmos 1733 Rocket 3.0 15:33:20 10° NNW 15:37:44 87° W 15:42:08 10° SSE
CZ-4 R/B 1.6 15:34:58 10° SE 15:38:37 41° ENE 15:42:16 10° N
Meteor 1-28 Rocket 4.0 15:35:04 10° N 15:38:43 50° WNW 15:42:23 10° SW
Lacrosse 5 rocket 3.5 15:39:01 10° SSE 15:40:25 11° SE 15:40:57 11° SE
CSL-04 Debris 4.3 15:35:55 10° SE 15:41:08 49° ENE 15:46:22 10° NNW
Envisat 2.9 15:36:33 10° SSE 15:41:38 73° ENE 15:46:43 10° NNW
Cosmos 1867 3.5 15:39:22 10° WNW 15:44:54 83° NNE 15:49:20 16° ESE
NOSS 3-1 (C) 3.8 15:39:38 10° WNW 15:46:13 78° N 15:51:53 20° E
NOSS 2-3 (E) 4.4 15:41:31 10° W 15:46:49 72° N 15:50:58 24° E
Cosmos 1992 Rocket 4.4 15:42:47 10° NW 15:48:00 68° WSW 15:53:11 10° SSE
SL-4 R/B 4.2 15:46:17 10° S 15:48:15 14° SSE 15:49:30 12° SE
Cosmos 2333 4.4 15:43:23 10° SSW 15:49:00 57° ESE 15:52:23 24° NE
Genesis I 3.6 15:46:59 10° WNW 15:50:53 64° SW 15:54:14 13° SE
FengYun 1-2 T 4.1 15:46:54 10° SSE 15:52:22 71° ENE 15:57:53 10° NNW
USA 229 DEB 3.8 15:46:51 10° WNW 15:53:50 79° NNE 15:58:54 22° E
USA 229 3.8 15:46:58 10° WNW 15:53:56 79° NNE 15:58:59 22° E
Cosmos 2322 3.7 15:48:44 10° SSW 15:54:24 67° SE 15:57:46 25° NE
Cosmos 2278 Rocket 3.1 15:49:54 10° NW 15:55:23 51° WSW 16:00:49 10° SSE
ARGOS 4.2 15:56:26 24° NE 15:56:27 24° NE 16:00:39 10° N
Cosmos 1666 2.5 15:53:17 10° N 15:57:03 65° ENE 16:00:47 10° SSE
NOSS 2-3 (D) 4.4 15:52:15 10° W 15:57:35 72° N 16:01:18 27° E
Sich 1 Rocket 3.9 15:53:51 10° N 15:58:04 40° ENE 16:00:08 25° ESE
COBE Rocket 3.8 15:55:37 18° NNE 15:59:01 57° E 16:03:36 10° S
Cosmos 1782 3.2 15:55:04 10° SSW 15:59:02 62° WNW 16:02:31 13° N
NOSS 3-1 (A) 3.8 15:52:31 10° W 15:59:04 76° N 16:03:49 25° E
Cosmos 1606 4.3 15:56:03 10° SW 15:59:30 32° WNW 16:03:00 10° N
Meteor 2-6 Rocket 4.0 15:55:28 10° S 16:00:51 76° ESE 16:06:01 12° NNE
CZ-4B R/B 2.9 15:58:10 11° N 16:01:15 36° WNW 16:04:30 10° SW
NOSS 8 (H) 4.3 15:58:21 10° WSW 16:01:28 75° SSE 16:02:09 52° E
NOAA 11 4.3 15:56:15 10° SE 16:01:31 52° ENE 16:06:51 10° NNW
NOSS 3-4 (A) 3.7 15:55:50 10° SSW 16:01:47 55° SE 16:05:01 29° ENE
NOSS 3-4 (C) 3.7 15:55:56 10° SSW 16:01:54 55° SE 16:05:08 29° ENE
CZ-2D R/B 4.0 16:02:48 33° NNE 16:02:48 33° NNE 16:05:31 10° N
COSMOS 2455 2.9 15:56:03 10° WSW 16:02:07 78° NNW 16:05:36 27° NE
SL-16 R/B 4.1 15:57:35 10° NNE 16:02:39 28° NW 16:07:43 10° W
Okean 2 Rocket 4.0 15:58:43 10° N 16:01:59 30° NE 16:01:59 30° NE
Cosmos 1315 Rocket 3.0 16:01:22 10° SSW 16:05:23 74° WNW 16:08:15 19° NNE
Cosmos 1782 Rocket 3.6 16:01:54 10° N 16:06:14 54° ENE 16:10:30 10° SSE
Cosmos 2360 Rocket 2.2 16:02:35 10° SW 16:08:17 81° NW 16:11:41 26° NE
SMAP 4.1 16:04:08 10° S 16:08:40 48° W 16:13:13 10° NNW
Cosmos 921 Rocket 2.8 16:05:05 10° NNW 16:09:20 74° ENE 16:12:46 16° SE
Cosmos 1975 4.2 16:06:23 10° N 16:08:19 23° NNE 16:08:19 23° NNE
Cosmos 2369 Rocket 2.3 16:04:46 10° NW 16:10:18 54° NE 16:12:39 33° E
CZ-4 R/B 4.3 16:06:42 10° SSE 16:10:52 79° ENE 16:15:04 10° NNW
NOSS 2-2 (C) 3.5 16:09:10 10° WSW 16:13:09 86° SSE 16:14:43 42° ENE
NOAA 15 4.5 16:09:26 10° SSE 16:14:42 76° ENE 16:19:58 10° NNW
Cosmos 1400 Rocket 4.4 16:11:26 10° SW 16:15:10 34° WNW 16:18:34 12° N
Cosmos 1980 Rocket 3.2 16:09:54 10° W 16:15:11 36° NNW 16:18:02 23° NNE
Meteor 1-10 Rocket 4.1 16:10:28 10° SSW 16:16:03 85° ESE 16:21:17 12° NNE
Cosmos 1743 3.2 16:12:42 10° N 16:15:38 41° NNE 16:15:38 41° NNE
Cosmos 1092 Rocket 4.1 16:10:46 10° SSE 16:16:48 50° E 16:22:48 10° NNE
Elektron 3 4.4 16:14:26 10° W 16:17:28 69° SSW 16:18:58 36° SE
SL-16 R/B 4.2 16:14:29 10° SE 16:15:06 12° SE 16:15:06 12° SE
Okean O Rocket 4.4 16:15:40 10° SW 16:18:52 20° W 16:22:05 10° NW
NOSS 8 (F) 4.3 16:18:47 10° WSW 16:21:54 76° NNW 16:22:02 74° NNE
Cosmos 2333 Rocket 2.2 16:16:41 10° SSW 16:22:23 66° SE 16:24:44 36° NE
Cosmos 1862 Rocket 3.4 16:18:37 10° S 16:22:58 74° E 16:24:48 34° NNE
Ariane Rocket 3.1 16:23:17 38° ESE 16:24:45 50° ENE 16:29:40 10° NNW
Cosmos 2242 Rocket 3.7 16:20:21 10° S 16:24:49 56° E 16:25:38 48° ENE
TIMED 4.4 16:21:22 10° SSW 16:25:46 87° NW 16:27:08 44° NNE
Cosmos 292 Rocket 4.4 16:21:03 10° NW 16:25:50 57° WSW 16:30:37 10° SSE
Cosmos 494 Rocket 4.2 16:20:46 10° SW 16:26:02 69° NW 16:28:56 27° NNE
Uosat 12 SS-18 rocket 4.3 16:21:30 10° WNW 16:27:03 86° SSW 16:28:49 40° SE
Cosmos 2237 Rocket 2.6 16:24:22 10° S 16:29:37 39° ESE 16:29:56 39° ESE
Okean-O 3.7 16:28:26 10° S 16:32:43 47° W 16:37:03 10° NNW
Cosmos 2322 Rocket 2.9 16:28:15 10° WSW 16:33:43 48° NNW 16:36:27 28° NNE
NOSS 2-3 (C) 4.4 16:29:26 10° WNW 16:34:58 77° NNE 16:37:29 41° E
NOSS 2-2 (E) 3.7 16:31:12 10° WSW 16:35:20 80° NNW 16:36:25 54° ENE
Cosmos 1812 2.6 16:31:47 10° SSW 16:35:40 85° WNW 16:36:19 60° N
Meteor 1-27 Rocket 3.7 16:30:16 10° S 16:36:03 80° ESE 16:40:46 17° NNE
Cosmos 1269 Rocket 4.3 16:31:57 10° SW 16:37:15 68° NW 16:39:52 30° NNE
S3M 4.0 16:32:25 10° NNW 16:38:39 58° ENE 16:42:24 24° SE
Cosmos 1707 Rocket 4.4 16:34:41 10° SW 16:39:03 50° WNW 16:42:29 16° N
ATLAS 2AS CENTAUR R/B 3.0 16:31:41 10° WSW 16:39:46 84° SSE 16:43:21 37° ENE
RESURS DK-1 2.5 16:36:15 10° SSW 16:39:58 58° SSE 16:39:58 58° SSE
Cosmos 1939 Rocket 3.3 16:41:23 47° N 16:41:23 47° N 16:44:20 10° NNW
SL-16 R/B 3.0 16:35:09 10° W 16:40:35 44° NNW 16:43:06 28° NNE
Exosat Rocket 3.5 16:36:56 10° SSW 16:41:54 59° ESE 16:42:27 55° E
Cosmos 1763 Rocket 4.0 16:38:05 10° NNW 16:42:32 40° NNE 16:42:32 40° NNE
Cosmos 1697 Rocket 3.8 16:39:52 10° WNW 16:44:51 31° N 16:46:14 28° NNE
Cosmos 2219 Rocket 2.1 16:39:33 10° SW 16:45:12 83° SE 16:46:57 46° NE
Cosmos 1656 Rocket 3.8 16:40:14 10° NW 16:45:32 49° NNE 16:45:52 48° NE
Resurs 01 Rocket 4.0 16:50:34 11° N 16:50:34 11° N 16:50:54 10° N
SeaSat 1 2.3 16:48:20 52° SE 16:49:34 84° NE 16:54:33 10° NW
Cosmos 1908 Rocket 4.4 16:45:26 10° NNW 16:49:44 50° W 16:53:59 10° S
COSMO-SKYMED 1 3.3 16:53:11 41° S 16:53:11 41° S 16:56:08 10° S
Cosmos 1553 Rocket 3.9 16:46:39 10° NNW 16:53:01 80° ENE 16:59:26 10° SSE
Cosmos 1943 Rocket 2.1 16:50:35 10° NW 16:56:19 87° NE 16:57:51 51° SE
Nadezhda 4 Rocket 4.1 16:50:03 10° SSW 16:56:24 79° WNW 17:02:45 10° NNE
Cosmos 2297 4.5 16:51:20 10° NW 16:56:53 52° WSW 17:02:22 10° SSE
Cosmos 1980 3.7 16:54:28 10° SSW 16:59:58 58° ESE 16:59:58 58° ESE
USA 215 3.4 16:59:38 45° ESE 17:01:23 59° SSE 17:07:50 10° WSW
Cosmos 1441 Rocket 4.2 16:57:54 10° NNW 17:01:39 46° W 17:05:18 10° S
YAOGAN 6 4.2 16:58:27 10° SSW 17:01:45 35° W 17:05:07 10° NNW
Cosmos 1428 Rocket 4.4 16:55:47 10° S 17:01:52 62° E 17:03:53 42° NE
Cosmos 2263 4.1 16:56:32 10° NW 17:02:21 73° NE 17:03:05 64° E
Cosmos 2251 Rocket 3.4 16:57:32 10° SSW 17:02:50 80° ESE 17:03:18 72° ENE
Lacrosse 4 Rocket 2.5 16:59:51 10° NW 17:02:40 34° NNW 17:02:40 34° NNW
Cosmos 841 Rocket 4.3 17:02:56 10° NNW 17:06:45 36° N 17:06:45 36° N
CSL-04 Rocket 4.2 17:02:41 10° S 17:07:53 57° WSW 17:13:09 10° NNW
YAOGAN 1 3.4 17:03:58 10° S 17:08:12 50° W 17:12:27 10° NNW
Cosmos 2315 Rocket 4.2 17:06:02 10° N 17:11:33 51° NE 17:11:33 51° NE
H-2A R/B 3.0 17:15:45 33° N 17:15:45 33° N 17:18:39 10° NNW
CZ-4 R/B 2.8 17:10:09 10° SSW 17:13:45 35° W 17:17:20 10° NNW
COSMOS 2428 2.7 17:09:19 10° SW 17:15:01 76° NW 17:16:06 58° NNE
Lacrosse 5 rocket 3.4 17:15:02 10° SW 17:16:37 19° SSW 17:16:37 19° SSW
Cosmos 2026 Rocket 3.8 17:12:42 10° S 17:18:47 82° E 17:21:16 38° NNE
SPOT 3 Rocket 4.4 17:21:36 37° N 17:21:36 37° N 17:24:52 10° NNW
NOSS 2-2 (D) 4.1 17:21:59 10° W 17:25:32 60° WNW 17:25:32 60° WNW
SL-4 R/B 4.3 17:23:47 10° SW 17:25:06 16° SSW 17:25:06 16° SSW
Cosmos 468 Rocket 4.4 17:22:09 10° NNW 17:26:14 55° NNW 17:26:14 55° NNW
Meteor 2-9 Rocket 4.4 17:21:55 10° NNW 17:27:48 75° WSW 17:30:29 34° S
Meteor 1-12 Rocket 4.2 17:27:20 10° NNW 17:33:21 87° WSW 17:33:43 79° S
Cosmos 883 Rocket 4.4 17:27:07 10° NNW 17:33:16 76° NE 17:33:16 76° NE
ARGOS 4.0 17:37:57 40° N 17:37:57 40° N 17:41:25 10° NNW
NOSS 3-1 (C) 4.0 17:30:26 10° WNW 17:37:20 70° SW 17:39:19 51° SSE
NOSS 2-3 (E) 4.4 17:32:09 10° WNW 17:37:58 85° SSW 17:38:25 79° SE
Cosmos 2322 4.3 17:33:20 10° WSW 17:38:53 49° NNW 17:39:42 46° N
Okean 2 Rocket 4.5 17:36:43 10° NNW 17:39:22 33° NW 17:39:22 33° NW
USA 229 DEB 4.0 17:37:53 10° WNW 17:44:52 65° SW 17:46:22 53° SSE
USA 229 4.0 17:38:00 10° WNW 17:44:58 65° SW 17:46:27 54° SSE
Cosmos 2344 4.2 17:36:23 10° WNW 17:45:03 74° SW 17:49:33 41° SE
NOSS 2-3 (D) 4.5 17:42:53 10° WNW 17:48:42 83° SSW 17:48:44 83° SSW
COSMOS 2455 3.3 17:42:50 10° W 17:48:43 50° N 17:48:44 50° N
NOSS 3-1 (A) 3.9 17:43:24 10° WNW 17:50:17 76° SSW 17:51:17 67° SSE
NOSS 3-4 (A) 3.5 17:46:15 10° WSW 17:52:28 82° NNW 17:52:28 82° NNW
NOSS 3-4 (C) 3.5 17:46:21 10° WSW 17:52:34 82° NNW 17:52:34 82° NNW
Cosmos 2360 Rocket 3.2 17:47:43 10° W 17:53:02 38° NNW 17:53:27 38° NNW
NOSS 0 Rocket 4.0 17:47:52 10° SW 17:53:49 78° W 17:53:49 78° W
Cosmos 2369 Rocket 2.6 17:48:58 10° NW 17:54:28 57° WSW 17:54:28 57° WSW
Cosmos 1980 Rocket 3.5 17:55:30 10° NW 17:59:47 31° N 17:59:47 31° N
SL-16 R/B 4.2 17:55:43 10° SSW 17:57:01 17° SSW 17:57:01 17° SSW
Ariane Rocket 4.0 18:03:29 42° WSW 18:03:52 42° W 18:08:43 10° NNW
Cosmos 2333 Rocket 2.9 18:01:20 10° WSW 18:06:46 50° NW 18:06:46 50° NW
Cosmos 2237 Rocket 3.0 18:07:46 10° SW 18:11:47 46° WSW 18:11:47 46° WSW
Cosmos 2322 Rocket 3.6 18:13:57 10° WNW 18:18:16 30° NNW 18:18:16 30° NNW
SL-16 R/B 3.7 18:20:56 10° WNW 18:24:58 29° NNW 18:24:58 29° NNW
SeaSat 1 4.2 18:28:08 29° W 18:28:08 29° W 18:31:55 10° NW
Cosmos 2219 Rocket 3.4 18:24:18 10° W 18:28:41 39° NW 18:28:41 39° NW
Cosmos 1697 Rocket 4.3 18:24:55 10° NW 18:27:58 28° NNW 18:27:58 28° NNW
ATLAS 2AS CENTAUR R/B 3.1 18:23:07 10° W 18:30:47 73° NNW 18:30:47 73° NNW
Cosmos 1943 Rocket 3.8 18:34:44 10° NW 18:39:24 30° WSW 18:39:24 30° WSW
Lacrosse 4 Rocket 4.5 18:38:36 10° NW 18:38:58 12° NW 18:38:58 12° NW
USA 215 4.0 18:46:59 44° WSW 18:46:59 44° WSW 18:51:29 10° W
H-2A R/B 4.2 18:56:22 20° NW 18:56:22 20° NW 18:58:07 10° NNW
COSMOS 2428 4.4 18:54:47 10° W 18:58:08 29° WNW 18:58:08 29° WNW
ATLAS 2AS CENTAUR R/B 4.5 20:14:41 10° WNW 20:18:13 29° WNW 20:18:13 29° WNW
